Volver al catálogo

LINGQIAO VIDEO B

ActivoCienciaSSO
NORAD 40960·PAYLOAD·🇨🇳 China

Lanzado Oct 7, 2015 desde Jiuquan Satellite Launch Center

Loading…

Próximos Pases (próximas 24 horas)

TLE

ActualizadoSource: Space-Track

Época: Sep 14, 2026, 14:16 UTC

1 40960U 15057C   26257.59447753  .00000000  00000-0  68606-5 0  9994
2 40960  97.6663 249.1649 0016648 344.2048  15.8642 14.77598746588659

Sigue LINGQIAO VIDEO B en tiempo real con AllMySat

Download on the App Store